Location: Taukkyan
(23.1052°N, 94.0030°E)
Time: 11:24:34
(UTC+00:00)

CZ-2C R/B - Pass Details

Date: 06 July 2020
Orbit: 784 x 871 km, 98.3° (Epoch: 14 August)

Event Time Altitude Azimuth Distance (km) Brightness Sun altitude
Rises 13:49:06 0° 6° (N) 3,352 6.2 -15.9°
Reaches altitude 10° 13:51:30 10° 2° (N) 2,404 5.5 -16.4°
Maximum altitude 13:56:41 57° 285° (WNW) 938 3.2 -17.4°
Drops below altitude 10° 14:01:45 10° 207° (SSW) 2,349 4.9 -18.3°
Sets 14:04:05 0° 203° (SSW) 3,269 5.6 -18.8°
